Location: Krakow
(50.0830°N, 19.9170°E)
Time: 05:26:28
(UTC+01:00)

Vanguard 3 - All Passes

Search period start: 08 February 2023 00:00
Search period end: 18 February 2023 00:00
Orbit: 510 x 3252 km, 33.3° (Epoch: 07 February)

Date Brightness Start Highest point End Pass type
(mag) Time Alt. Az. Time Alt. Az. Time Alt. Az.
08 Feb - 00:07:42 10° WSW 00:15:37 15° SW 00:24:33 10° S visible
08 Feb - 16:19:49 10° S 16:23:37 15° SE 16:28:25 10° ESE daylight
08 Feb - 18:27:00 10° SW 18:34:07 30° SSE 18:45:13 10° ESE visible
08 Feb - 20:37:06 10° WSW 20:46:18 32° S 21:00:00 10° SE visible
08 Feb - 22:49:50 10° WSW 22:59:15 21° SSW 23:11:08 10° SSE visible
09 Feb - 17:13:34 10° SSW 17:19:02 23° SSE 17:27:02 10° ESE visible
09 Feb - 19:22:34 10° WSW 19:30:22 32° S 19:42:29 10° SE visible
09 Feb - 21:33:46 10° WSW 21:42:56 26° SSW 21:55:37 10° SSE visible
09 Feb - 23:50:34 10° SW 23:55:44 12° SW 00:01:25 10° SSW visible
10 Feb - 16:01:19 10° S 16:04:28 14° SE 16:08:22 10° ESE daylight
10 Feb - 18:08:33 10° SW 18:14:53 28° SSE 18:24:40 10° ESE visible
10 Feb - 20:18:38 10° WSW 20:26:49 29° S 20:38:57 10° SE visible
10 Feb - 22:31:43 10° WSW 22:39:31 18° SSW 22:49:13 10° S visible
11 Feb - 16:55:07 10° SSW 16:59:55 21° SSE 17:06:46 10° ESE daylight
11 Feb - 19:04:08 10° SW 19:11:03 29° S 19:21:40 10° SE visible
11 Feb - 21:15:28 10° WSW 21:23:21 22° SSW 21:34:09 10° SSE visible
12 Feb - 15:42:53 10° S 15:45:23 13° SSE 15:48:20 10° SE daylight
12 Feb - 17:50:08 10° SW 17:55:44 25° S 18:04:08 10° ESE visible
12 Feb - 20:00:18 10° WSW 20:07:25 25° S 20:17:49 10° SE visible
12 Feb - 22:14:08 10° SW 22:19:52 14° SSW 22:26:43 10° S visible
13 Feb - 16:36:42 10° SSW 16:40:51 19° SSE 16:46:33 10° ESE daylight
13 Feb - 18:45:47 10° SW 18:51:50 25° S 19:00:51 10° SE visible
13 Feb - 20:57:24 10° WSW 21:03:52 18° SSW 21:12:25 10° SSE visible
14 Feb - 15:24:36 10° S 15:26:20 11° SSE 15:28:17 10° SE daylight
14 Feb - 17:31:47 10° SW 17:36:38 22° S 17:43:40 10° SE visible
14 Feb - 19:42:06 10° SW 19:48:07 21° SSW 19:56:33 10° SSE visible
14 Feb - 21:58:30 10° SW 22:00:19 10° SSW 22:02:13 10° SSW visible
15 Feb - 16:18:20 10° SSW 16:21:49 17° SSE 16:26:24 10° SE daylight
15 Feb - 18:27:32 10° SW 18:32:40 21° S 18:40:00 10° SE visible
15 Feb - 20:39:48 10° SW 20:44:29 14° SSW 20:50:14 10° S visible
16 Feb - 15:06:44 10° SSE 15:07:18 10° SSE 15:07:53 10° SSE daylight
16 Feb - 17:13:30 10° SW 17:17:36 19° S 17:23:12 10° SE daylight
16 Feb - 19:24:08 10° SW 19:28:52 16° SSW 19:35:06 10° SSE visible
17 Feb - 16:00:03 10° SSW 16:02:49 15° SSE 16:06:16 10° SE daylight
17 Feb - 18:09:27 10° SW 18:13:35 17° S 18:19:05 10° SSE visible
17 Feb - 20:24:25 10° SSW 20:25:09 10° SSW 20:25:55 10° SSW visible
